Regional Weather Roundup
Issued by NWS Newport/Morehead, NC

Current Version | Previous Version | Graphics & Text | Print | Product List | Glossary On
Versions: 1 2 3 4 5 6 7 8 9 10 11 12 13 14 15 16 17 18 19 20 21 22 23 24 25 26 27 28 29 30 31 32 33 34 35 36 37 38 39 40 41 42 43 44 45 46 47 48 49 50
000 ASUS42 KMHX 031213 RWRMHX WEATHER ROUNDUP FOR EASTERN NORTH CAROLINA NATIONAL WEATHER SERVICE NEWPORT/MOREHEAD CITY NC 800 AM EDT FRI JUL 03 2015 NOTE: "FAIR" INDICATES FEW OR NO CLOUDS BELOW 12,000 FEET WITH NO SIGNIFICANT WEATHER AND/OR OBSTRUCTIONS TO VISIBILITY NCZ015>017-031-032-045>047-102-103-031300- NORTH COAST CITY SKY/WX TMP DP RH WIND PRES REMARKS EDENTON CLOUDY 71 70 96 N3 29.97R FOG ELIZABETH CITY CLOUDY 74 70 87 NE5 29.97R KITTY HAWK CLOUDY 73 72 95 CALM 29.95R FOG MANTEO DRIZZLE 73 71 95 NE5 29.96R $$ NCZ045>047-081-094-103-104-031300- CENTRAL COAST CITY SKY/WX TMP DP RH WIND PRES REMARKS FRISCO MOSUNNY 75 68 78 W13 29.98R SWANQUARTER N/A 75 N/A N/A W9 29.94R $$ NCZ095-097-098-100-101-031300- SOUTHERN COAST CITY SKY/WX TMP DP RH WIND PRES REMARKS BEAUFORT PTSUNNY 76 69 79 W13 29.99R CEDAR ISLAND N/A 75 N/A N/A W5G14 30.03R JACKSONVILLE CLOUDY 74 68 81 SW6 29.99R PINEY ISLAND CLOUDY N/A N/A N/A SW9 29.98R WILMINGTON CLOUDY 75 69 81 W8 29.99R $$ NCZ011>013-027>030-043-044-078>080-089-090>093-098-031300- COASTAL PLAIN CITY SKY/WX TMP DP RH WIND PRES REMARKS AHOSKIE MOSUNNY 70 67 90 CALM 29.98R FOG CLINTON CLOUDY 71 69 93 CALM 30.00R ELIZABETHTOWN RAIN 72 70 96 CALM 29.99R GOLDSBORO CLOUDY 72 70 92 SW2 29.96R GREENVILLE CLOUDY 72 72 100 CALM 29.99R HAVELOCK CLOUDY 74 68 81 W12 29.99R KENANSVILLE CLOUDY 72 67 85 SW3 30.00R KINSTON CLOUDY 73 70 88 SW6 29.99R NEW BERN CLOUDY 73 68 84 SW7 30.00R RICHLANDS CLOUDY 73 64 73 SW6 29.99R ROCKY MOUNT CLOUDY 73 70 90 CALM 29.97R FOG WASHINGTON MOSUNNY 72 70 93 CALM 29.98R WHITEVILLE CLOUDY 71 69 93 CALM 29.99R $$ AMZ130-135-150-152-154-156-158-170-250-252-270-ANZ085-086-088-633-658-670-031300- MARINE OBSERVATIONS STATION/POSITION TIME TEMP WIND PRES WAVE SWELL AIR SEA DIR/SP/G HT/PER HT/PER (UTC) (F) (DEG/KT/KT) (MB) (FT/S) (FT/S) CHESAPEAKE LIGHT 1200 73 50/ 10/ 11 1015.4 64 E VA BEACH 1150 74 77 40/ 12/ 14 1013.9 5/ 8 3/ 8 DUCK 1100 73 69 350/ 10/ 11 1012.9 2 E DUCK 1111 70 N/A 2/ 8 OREGON INLET 1100 75 81 270/ 8/ 11 1013.8 13E OREGON INLT 1200 72 N/A 4/ 7 HATTERAS CG 1100 75 78 230/ 11/ 15 1013.9 DIAMOND BUOY 1150 78 83 270/ 16/ 17 1014.7 6/ 8 3/ 8 CAPE LOOKOUT 1200 76 250/ 15/ 18 1015.2 BEAUFORT LAB 1100 75 80 260/ 4/ 8 1014.1 30 SE NEW RVR IN 1108 79 80 260/ 17/ 21 1015.8 27 SE WRIGHTSVLE NOT AVBL 5 SE WRIGHTSVLE 1108 76 79 260/ 10/ 14 1015.3 225 S CAPE HAT 1150 82 80 230/ 17/ 21 1018.1 7/ 6 2/15 41 SE CHARLESTON 1150 80 81 230/ 19/ 21 1015.8 5/ 6 2/ 8 $$

USA.gov is the U.S. government's official web portal to all federal, state and local government web resources and services.